CAPE
nan nan nan nan nan nan nan nan nan nan nan nan nan nan nan nan nan nan nan nan nan nan nan nan nan nan nan nan nan nan nan nan nan nan nan nan nan nan nan nan nan nan nan nan nan nan nan nan nan nan nan nan nan nan nan nan nan nan nan nan nan nan nan nan nan nan nan nan nan nan nan nan nan nan nan nan nan nan nan nan nan nan 1 2 2 4
nan nan nan nan nan nan nan nan nan nan nan nan nan nan nan nan nan nan nan nan nan nan nan nan nan nan nan nan nan nan nan nan nan nan nan nan nan nan nan nan nan nan nan nan nan nan nan nan nan nan nan nan nan nan nan nan nan nan nan nan nan nan nan nan nan nan nan nan nan nan nan nan nan nan nan nan nan nan nan nan nan nan nan 1 1 2
nan nan nan nan nan nan nan nan nan nan nan nan nan nan nan nan nan nan nan nan nan nan nan nan nan nan nan nan nan nan nan nan nan nan nan nan nan nan nan nan nan nan nan nan nan nan nan nan nan nan nan nan nan nan nan nan nan nan nan nan nan nan nan nan nan nan nan nan nan nan nan nan nan nan nan nan nan nan nan nan nan nan nan 0 0 1
nan nan nan nan nan nan nan nan nan nan nan nan nan nan nan nan nan nan nan nan nan nan nan nan nan nan nan nan nan nan nan nan nan nan nan nan nan nan nan nan nan nan nan nan nan nan nan nan nan nan nan nan nan nan nan nan nan nan nan nan nan nan nan nan nan nan nan nan nan nan nan nan nan nan nan nan nan nan nan nan nan nan nan 0 0 0
nan nan nan nan nan nan nan nan nan nan nan nan nan nan nan nan nan nan nan nan nan nan nan nan nan nan nan nan nan nan nan nan nan nan nan nan nan nan nan nan nan nan nan nan nan nan nan nan nan nan nan nan nan nan nan nan nan nan nan nan nan nan nan nan nan nan nan nan nan nan nan nan nan nan nan nan nan nan nan nan nan nan 0 0 0 0
nan nan nan nan nan nan nan nan nan nan nan nan nan nan nan nan nan nan nan nan nan nan nan nan nan nan nan nan nan nan nan nan nan nan nan nan nan nan nan nan nan nan nan nan nan nan nan nan nan nan nan nan nan nan nan nan nan nan nan nan nan nan nan nan nan nan nan nan nan nan nan nan nan nan nan nan nan nan nan nan nan 0 0 1 1 1
nan nan nan nan nan nan nan nan nan nan nan nan nan nan nan nan nan nan nan nan nan nan nan nan nan nan nan nan nan nan nan nan nan nan nan nan nan nan nan nan nan nan nan nan nan nan nan nan nan nan nan nan nan nan nan nan nan nan nan nan nan nan nan nan nan nan nan nan nan nan nan nan nan nan nan nan nan nan nan 0 0 0 1 1 1 1
nan nan nan nan nan nan nan nan nan nan nan nan nan nan nan nan nan nan nan nan nan nan nan nan nan nan nan nan nan nan nan nan nan nan nan nan nan nan nan nan nan nan nan nan nan nan nan nan nan nan nan nan nan nan nan nan nan nan nan nan nan nan nan nan nan nan nan nan nan nan nan nan nan nan nan nan 0 0 1 2 2 3 3 2 2 2
nan nan nan nan nan nan nan nan nan nan nan nan nan nan nan nan nan nan nan nan nan nan nan nan nan nan nan nan nan nan nan nan nan nan nan nan nan nan nan nan nan nan nan nan nan nan nan nan nan nan nan nan nan nan nan nan nan nan nan nan nan nan nan nan nan nan nan nan nan nan nan nan nan nan nan nan 0 0 0 1 1 3 4 4 4 5
nan nan nan nan nan nan nan nan nan nan nan nan nan nan nan nan nan nan nan nan nan nan nan nan nan nan nan nan nan nan nan nan nan nan nan nan nan nan nan nan nan nan nan nan nan nan nan nan nan nan nan nan nan nan nan nan nan nan nan nan nan nan nan nan nan nan nan nan nan nan nan nan nan nan nan nan 0 0 0 1 1 3 4 6 6 7
nan nan nan nan nan nan nan nan nan nan nan nan nan nan nan nan nan nan nan nan nan nan nan nan nan nan nan nan nan nan nan nan nan nan nan nan nan nan nan nan nan nan nan nan nan nan nan nan nan nan nan nan nan nan nan nan nan nan nan nan nan nan nan nan nan nan nan nan nan nan nan nan nan nan nan nan 0 0 0 0 0 2 3 5 5 7
nan nan nan nan nan nan nan nan nan nan nan nan nan nan nan nan nan nan nan nan nan nan nan nan nan nan nan nan nan nan nan nan nan nan nan nan nan nan nan nan nan nan nan nan nan nan nan nan nan nan nan nan nan nan nan nan nan nan nan nan nan nan nan nan nan nan nan nan nan nan nan nan nan nan 0 0 nan nan 1 0 0 1 3 5 5 7
nan nan nan nan nan nan nan nan nan nan nan nan nan nan nan nan nan nan nan nan nan nan nan nan nan nan nan nan nan nan nan nan nan nan nan nan nan nan nan nan nan nan nan nan nan nan nan nan nan nan nan nan nan nan nan nan nan nan nan nan nan nan nan nan nan nan nan nan nan nan nan nan 0 0 1 1 2 2 2 2 2 3 4 5 5 8
nan nan nan nan nan nan nan nan nan nan nan nan nan nan nan nan nan nan nan nan nan nan nan nan nan nan nan nan nan nan nan nan nan nan nan nan nan nan nan nan nan nan nan nan nan nan nan nan nan nan nan nan nan nan nan nan nan nan nan nan nan nan nan nan nan nan nan nan nan nan nan nan 1 1 2 3 3 3 3 4 4 5 6 7 7 10
nan nan nan nan nan nan nan nan nan nan nan nan nan nan nan nan nan nan nan nan nan nan nan nan nan nan nan nan nan nan nan nan nan nan nan nan nan nan nan nan nan nan nan nan nan nan nan nan nan nan nan nan nan nan nan nan nan nan nan nan nan nan nan nan nan nan nan nan nan nan 0 1 1 1 3 4 5 5 6 7 7 8 10 12 12 13
nan nan nan nan nan nan nan nan nan nan nan nan nan nan nan nan nan nan nan nan nan nan nan nan nan nan nan nan nan nan nan nan nan nan nan nan nan nan nan nan nan nan nan nan nan nan nan nan nan nan nan nan nan nan nan nan nan nan nan nan nan nan nan nan nan nan nan nan nan nan 0 0 0 0 2 4 7 7 7 10 10 12 14 15 15 16
nan nan nan nan nan nan nan nan nan nan nan nan nan nan nan nan nan nan nan nan nan nan nan nan nan nan nan nan nan nan nan nan nan nan nan nan nan nan nan nan nan nan nan nan nan nan nan nan nan nan nan nan nan nan nan nan nan nan nan nan nan nan nan nan nan nan nan nan nan nan nan nan 0 0 1 3 6 6 10 12 12 15 17 18 18 19
nan nan nan nan nan nan nan nan nan nan nan nan nan nan nan nan nan nan nan nan nan nan nan nan nan nan nan nan nan nan nan nan nan nan nan nan nan nan nan nan nan nan nan nan nan nan nan nan nan nan nan nan nan nan nan nan nan nan nan nan nan nan nan nan nan nan nan nan nan nan nan nan nan nan 1 3 6 6 8 12 12 14 15 16 16 18
nan nan nan nan nan nan nan nan nan nan nan nan nan nan nan nan nan nan nan nan nan nan nan nan nan nan nan nan nan nan nan nan nan nan nan nan nan nan nan nan nan nan nan nan nan nan nan nan nan nan nan nan nan nan 0 2 2 2 1 nan nan nan nan nan nan nan nan nan nan nan nan nan nan nan 1 1 3 3 6 9 9 11 16 19 19 20
nan nan nan nan nan nan nan nan nan nan nan nan nan nan nan nan nan nan nan nan nan nan nan nan nan nan nan nan nan nan nan nan nan nan nan nan nan nan nan nan nan nan nan nan nan nan nan nan nan nan nan nan nan nan 2 3 3 5 5 2 2 nan nan nan nan nan nan nan nan nan nan nan nan nan 0 0 2 2 4 7 7 10 16 18 18 16
nan nan nan nan nan nan nan nan nan nan nan nan nan nan nan nan nan nan nan nan nan nan nan nan nan nan nan nan nan nan nan nan nan nan nan nan nan nan nan nan nan nan nan nan nan nan nan nan nan nan nan nan nan nan nan nan nan nan nan 0 0 nan nan nan nan nan nan nan nan nan nan nan nan nan nan nan 2 2 4 7 7 10 11 12 12 11
nan nan nan nan nan nan nan nan nan nan nan nan nan nan nan nan nan nan nan nan nan nan nan nan nan nan nan nan nan nan nan nan nan nan nan nan nan nan nan nan nan nan nan nan nan nan nan nan nan nan nan nan nan nan nan nan nan nan nan nan nan nan nan nan nan nan nan nan nan nan nan nan nan nan nan 0 1 1 3 6 6 7 7 6 6 4
nan nan nan nan nan nan nan nan nan nan nan nan nan nan nan nan nan nan nan nan nan nan nan nan nan nan nan nan nan nan nan nan nan nan nan nan nan nan nan nan nan nan nan nan nan nan nan nan nan nan nan nan nan nan nan nan nan 0 2 4 4 3 1 0 0 nan nan nan nan nan nan nan nan nan nan 0 2 2 3 5 5 5 4 3 3 2
nan nan nan nan nan nan nan nan nan nan nan nan nan nan nan nan nan nan nan nan nan nan nan nan nan nan nan nan nan nan nan nan nan nan nan nan nan nan nan nan nan nan nan nan nan nan nan nan nan nan nan nan nan nan nan 0 0 2 4 5 5 4 2 1 1 nan nan nan nan nan nan nan nan nan nan 1 4 4 5 6 6 4 3 2 2 2
nan nan nan nan nan nan nan nan nan nan nan nan nan nan nan nan nan nan nan nan nan nan nan nan nan nan nan nan nan nan nan nan nan nan nan nan nan nan nan nan nan nan nan nan nan nan nan nan nan nan nan nan nan nan nan 0 0 1 1 1 1 0 nan nan nan nan nan nan nan nan nan nan nan nan 0 4 6 6 8 6 6 6 5 5 5 6
nan nan nan nan nan nan nan nan nan nan nan nan nan nan nan nan nan nan nan nan nan nan nan nan nan nan nan nan nan nan nan nan nan nan nan nan nan nan nan nan nan nan nan nan nan nan nan nan nan nan nan nan nan nan nan nan nan nan nan nan nan nan nan nan nan nan nan nan nan nan nan nan nan nan 1 5 6 6 7 6 6 6 8 10 10 11
nan nan nan nan nan nan nan nan nan nan nan nan nan nan nan nan nan nan nan nan nan nan nan nan nan nan nan nan nan nan nan nan nan nan nan nan nan nan nan nan nan nan nan nan nan nan nan nan nan nan nan nan nan nan nan nan nan nan nan nan nan nan nan nan nan nan nan nan nan nan nan nan 0 0 2 3 4 4 5 6 6 9 10 13 13 12
nan nan nan nan nan nan nan nan nan nan nan nan nan nan nan nan nan nan nan nan nan nan nan nan nan nan nan nan nan nan nan nan nan nan nan nan nan nan nan nan nan nan nan nan nan nan nan nan nan nan nan nan nan nan nan nan nan nan nan nan nan nan nan nan nan nan nan nan nan nan nan 0 0 0 1 1 2 2 4 7 7 9 10 3 3 nan
nan nan nan nan nan nan nan nan nan nan nan nan nan nan nan nan nan nan nan nan nan nan nan nan nan nan nan nan nan nan nan nan nan nan nan nan nan nan nan nan nan nan nan nan nan nan nan nan nan nan nan nan nan nan nan nan nan nan nan nan nan nan nan nan nan nan nan nan nan nan 0 0 0 0 0 1 3 3 4 8 8 10 3 nan nan nan
nan nan nan nan nan 0 nan nan nan nan 0 0 0 0 nan nan nan nan nan nan nan nan nan nan nan nan nan nan nan nan nan nan nan nan nan nan nan nan nan nan nan nan nan nan nan nan nan nan nan nan nan nan nan nan nan nan nan nan nan nan nan nan nan nan nan nan nan nan nan nan 0 0 0 0 1 2 3 3 4 4 4 0 nan nan nan nan
nan nan nan nan nan nan nan nan nan nan 1 1 0 0 nan nan nan nan nan nan nan nan nan nan nan nan nan nan nan nan nan nan nan nan nan nan nan nan nan nan nan nan nan nan nan nan nan nan nan nan nan nan nan nan nan nan nan nan nan nan nan nan nan nan nan nan nan nan nan nan 1 1 3 3 2 3 2 2 1 1 1 nan nan nan nan nan
nan nan nan nan nan nan nan nan nan nan nan nan nan nan nan nan nan nan nan nan nan nan nan nan nan nan nan nan nan nan nan nan nan nan nan nan nan nan nan nan nan nan nan nan nan nan nan nan nan nan nan nan nan nan nan nan nan nan nan nan nan nan nan nan nan nan nan 1 2 2 1 1 0 0 nan nan nan nan nan nan nan nan nan nan nan nan
nan nan nan nan nan nan nan nan nan nan nan nan nan nan nan nan nan nan nan nan nan nan nan nan nan nan nan nan nan nan nan nan nan nan nan nan nan nan nan nan nan nan nan nan nan nan nan nan nan nan nan nan nan nan nan nan nan nan nan nan nan nan nan nan nan nan nan nan nan nan nan nan nan nan nan nan nan nan 0 0 0 1 0 nan nan nan
nan nan nan nan nan nan nan nan nan nan nan nan nan nan nan nan nan nan nan nan nan nan nan nan nan nan nan nan nan nan nan nan nan nan nan nan nan nan nan nan nan nan nan nan nan nan nan nan nan nan nan nan nan nan nan nan nan nan nan nan nan nan nan nan nan nan nan nan nan nan nan nan nan nan nan nan nan nan 1 3 3 4 8 0 0 nan
nan nan nan nan nan nan nan nan nan nan nan nan nan nan nan nan nan nan nan nan nan nan nan nan nan nan nan nan nan nan nan nan nan nan nan nan nan nan nan nan nan nan nan nan nan nan nan nan nan 0 0 nan nan nan nan nan nan nan nan nan nan nan nan nan nan nan nan nan nan nan nan nan nan nan nan nan nan nan 2 4 4 5 6 10 10 4
nan nan nan nan nan nan nan nan nan nan nan nan nan nan nan nan nan nan nan nan nan nan nan nan nan nan nan nan nan nan nan nan nan nan nan nan nan nan nan nan nan nan nan 0 0 0 0 1 1 2 2 1 nan nan nan nan nan nan nan nan nan nan nan nan nan nan nan nan nan nan nan nan nan nan nan nan 0 0 2 3 3 2 2 4 4 9
nan nan nan nan nan nan nan nan nan nan nan nan nan nan nan nan nan nan nan nan nan nan nan nan nan nan nan nan nan nan nan nan nan nan nan nan nan nan nan 0 0 0 0 1 1 2 2 2 2 2 1 0 nan nan nan nan nan nan nan nan nan nan nan nan nan nan nan nan nan nan nan nan nan nan nan nan nan nan 0 2 2 0 0 3 3 8
nan nan nan nan nan nan nan nan nan nan nan nan nan nan nan nan nan nan nan nan nan nan nan nan nan nan nan 0 nan nan nan nan nan nan nan nan nan nan nan 1 1 1 1 2 2 3 4 3 3 3 1 0 0 0 nan nan nan nan nan nan nan nan nan nan nan nan nan nan nan nan nan nan nan nan nan nan nan nan nan nan nan nan nan nan nan 8
nan nan nan nan nan nan nan nan nan nan nan nan nan nan nan nan nan nan nan nan nan nan nan nan nan nan nan nan nan nan 0 nan nan nan nan nan nan nan nan 1 1 2 1 2 2 4 5 4 4 2 2 0 0 0 nan nan nan nan nan nan nan nan nan nan nan nan nan nan nan nan nan nan nan nan nan nan nan nan nan nan nan nan nan nan nan nan
nan nan nan nan nan nan nan nan nan nan nan nan nan nan nan nan nan nan nan nan nan nan nan nan nan nan nan nan nan nan nan nan nan nan nan nan nan nan nan 0 0 2 3 2 2 3 5 4 4 5 4 0 0 0 0 nan nan nan 1 nan nan nan nan nan nan nan nan nan nan nan nan nan nan nan nan nan nan nan nan nan nan nan nan nan nan nan
nan nan nan nan nan nan nan nan nan nan nan nan nan nan nan nan nan nan nan nan nan nan nan nan nan nan nan nan nan nan nan nan nan nan nan nan nan nan nan nan nan 1 1 1 1 2 3 3 3 4 3 1 2 2 2 0 0 2 3 0 0 nan nan nan nan nan nan nan nan nan nan nan nan nan nan nan nan nan nan nan nan nan nan nan nan nan
0 nan nan nan nan nan nan nan nan nan nan nan nan nan nan nan nan nan nan nan nan nan nan nan nan nan nan nan nan nan nan nan nan nan nan nan nan nan nan nan nan nan nan 0 0 1 0 1 1 2 1 1 1 1 0 0 0 0 1 nan nan nan nan nan nan nan nan nan nan nan nan nan nan nan nan nan nan nan nan nan nan nan nan nan nan nan
nan nan nan nan nan nan nan nan nan nan nan nan nan nan nan nan nan nan nan nan nan nan nan nan nan nan 0 nan nan nan nan nan nan nan nan nan nan nan nan nan nan nan nan nan nan nan nan nan nan 0 0 0 0 0 0 0 0 0 0 nan nan 0 nan nan nan nan nan nan nan nan nan nan nan nan nan nan nan nan nan nan nan nan nan nan nan 3
nan nan nan nan nan nan nan nan nan nan nan nan nan nan nan nan nan nan nan nan nan nan nan nan nan nan 2 1 nan nan nan nan nan nan nan nan nan nan nan nan nan nan nan nan nan nan nan nan nan nan nan nan nan nan nan nan nan nan nan nan nan nan nan nan nan nan nan nan nan nan nan nan nan nan nan nan nan nan nan nan nan nan nan 0 0 0
nan nan nan nan nan nan nan nan nan nan nan 0 nan nan nan nan 0 0 nan nan nan nan nan nan nan 1 3 1 0 0 nan nan nan nan nan nan nan nan nan nan nan nan nan nan nan nan nan nan nan nan nan nan nan nan nan 0 0 0 0 nan nan nan nan nan nan nan nan nan nan nan nan nan nan nan nan nan nan nan nan nan nan nan nan nan nan nan
0 1 0 0 0 0 2 1 nan nan nan nan nan nan nan nan nan nan 0 nan nan nan nan nan nan 2 3 2 nan nan nan nan nan nan nan nan nan nan nan nan nan nan nan nan nan nan nan nan nan nan nan nan nan nan nan nan nan nan nan nan nan nan nan nan nan nan nan nan nan nan nan nan nan nan nan nan nan nan nan nan nan nan nan nan nan nan
0 0 0 0 0 0 0 0 0 0 0 0 0 0 nan nan nan nan nan nan nan nan nan 0 0 2 3 2 0 0 nan nan nan nan nan nan nan nan nan nan nan nan nan nan nan nan nan nan nan nan nan nan nan nan nan nan nan nan nan nan nan nan nan nan nan nan nan nan nan nan nan nan nan nan nan nan nan nan nan nan nan nan nan nan nan nan
1 1 0 0 0 0 0 0 0 0 0 1 nan nan nan nan nan nan nan nan nan nan 2 0 0 2 2 1 1 1 2 0 nan nan nan nan nan nan nan nan nan nan nan nan nan nan nan nan nan nan nan nan nan nan nan nan nan nan nan nan nan nan nan nan nan nan nan nan nan nan nan nan nan nan nan nan nan nan nan nan nan nan nan nan nan nan
nan nan 0 1 1 0 0 nan nan nan nan nan nan nan nan 0 7 7 nan nan nan nan 0 1 1 3 2 2 2 2 3 2 1 1 nan nan nan nan nan nan nan nan nan nan nan nan nan nan nan nan nan nan nan nan nan nan nan nan nan nan nan nan nan nan nan nan nan nan nan nan nan nan nan nan nan nan nan nan nan nan nan nan nan nan nan nan
nan nan 0 0 0 nan nan nan nan nan nan nan nan nan nan nan nan nan nan nan nan 1 2 4 4 6 7 5 3 3 3 3 2 2 0 nan nan nan nan nan nan nan nan nan nan nan nan nan nan nan nan nan nan nan nan nan nan nan nan nan nan nan nan nan nan nan nan nan nan nan nan nan nan nan nan nan nan nan nan nan nan nan nan nan nan nan
0 0 0 nan nan nan nan 0 1 1 1 2 3 3 3 2 1 1 0 1 1 2 3 5 5 7 6 4 5 5 5 4 3 3 2 nan nan nan nan nan nan nan nan nan nan nan nan nan nan nan nan nan nan nan nan nan nan nan nan nan nan nan nan nan nan nan nan nan nan nan nan nan nan nan nan nan nan nan nan nan nan nan nan nan nan nan
CIN
nan nan nan nan nan nan nan nan nan nan nan nan nan nan nan nan nan nan nan nan nan nan nan nan nan nan nan nan nan nan nan nan nan nan nan nan nan nan nan nan nan nan nan nan nan nan nan nan nan nan nan nan nan nan nan nan nan nan nan nan nan nan nan nan nan nan nan nan nan nan nan nan nan nan nan nan nan nan nan nan nan nan -0 -0 -0 -0
nan nan nan nan nan nan nan nan nan nan nan nan nan nan nan nan nan nan nan nan nan nan nan nan nan nan nan nan nan nan nan nan nan nan nan nan nan nan nan nan nan nan nan nan nan nan nan nan nan nan nan nan nan nan nan nan nan nan nan nan nan nan nan nan nan nan nan nan nan nan nan nan nan nan nan nan nan nan nan nan nan nan nan -0 -0 -0
nan nan nan nan nan nan nan nan nan nan nan nan nan nan nan nan nan nan nan nan nan nan nan nan nan nan nan nan nan nan nan nan nan nan nan nan nan nan nan nan nan nan nan nan nan nan nan nan nan nan nan nan nan nan nan nan nan nan nan nan nan nan nan nan nan nan nan nan nan nan nan nan nan nan nan nan nan nan nan nan nan nan nan -0 -0 -0
nan nan nan nan nan nan nan nan nan nan nan nan nan nan nan nan nan nan nan nan nan nan nan nan nan nan nan nan nan nan nan nan nan nan nan nan nan nan nan nan nan nan nan nan nan nan nan nan nan nan nan nan nan nan nan nan nan nan nan nan nan nan nan nan nan nan nan nan nan nan nan nan nan nan nan nan nan nan nan nan nan nan nan -0 -0 -0
nan nan nan nan nan nan nan nan nan nan nan nan nan nan nan nan nan nan nan nan nan nan nan nan nan nan nan nan nan nan nan nan nan nan nan nan nan nan nan nan nan nan nan nan nan nan nan nan nan nan nan nan nan nan nan nan nan nan nan nan nan nan nan nan nan nan nan nan nan nan nan nan nan nan nan nan nan nan nan nan nan nan -0 -0 -0 -0
nan nan nan nan nan nan nan nan nan nan nan nan nan nan nan nan nan nan nan nan nan nan nan nan nan nan nan nan nan nan nan nan nan nan nan nan nan nan nan nan nan nan nan nan nan nan nan nan nan nan nan nan nan nan nan nan nan nan nan nan nan nan nan nan nan nan nan nan nan nan nan nan nan nan nan nan nan nan nan nan nan -0 -0 -0 -0 -0
nan nan nan nan nan nan nan nan nan nan nan nan nan nan nan nan nan nan nan nan nan nan nan nan nan nan nan nan nan nan nan nan nan nan nan nan nan nan nan nan nan nan nan nan nan nan nan nan nan nan nan nan nan nan nan nan nan nan nan nan nan nan nan nan nan nan nan nan nan nan nan nan nan nan nan nan nan nan nan -0 -0 -0 -0 -0 -0 -0
nan nan nan nan nan nan nan nan nan nan nan nan nan nan nan nan nan nan nan nan nan nan nan nan nan nan nan nan nan nan nan nan nan nan nan nan nan nan nan nan nan nan nan nan nan nan nan nan nan nan nan nan nan nan nan nan nan nan nan nan nan nan nan nan nan nan nan nan nan nan nan nan nan nan nan nan -0 -0 -0 -0 -0 -0 -0 -0 -0 -0
nan nan nan nan nan nan nan nan nan nan nan nan nan nan nan nan nan nan nan nan nan nan nan nan nan nan nan nan nan nan nan nan nan nan nan nan nan nan nan nan nan nan nan nan nan nan nan nan nan nan nan nan nan nan nan nan nan nan nan nan nan nan nan nan nan nan nan nan nan nan nan nan nan nan nan nan -0 -0 -0 -0 -0 -0 -0 -0 -0 -0
nan nan nan nan nan nan nan nan nan nan nan nan nan nan nan nan nan nan nan nan nan nan nan nan nan nan nan nan nan nan nan nan nan nan nan nan nan nan nan nan nan nan nan nan nan nan nan nan nan nan nan nan nan nan nan nan nan nan nan nan nan nan nan nan nan nan nan nan nan nan nan nan nan nan nan nan -0 -0 -0 -0 -0 -0 -0 -0 -0 -0
nan nan nan nan nan nan nan nan nan nan nan nan nan nan nan nan nan nan nan nan nan nan nan nan nan nan nan nan nan nan nan nan nan nan nan nan nan nan nan nan nan nan nan nan nan nan nan nan nan nan nan nan nan nan nan nan nan nan nan nan nan nan nan nan nan nan nan nan nan nan nan nan nan nan nan nan -0 -0 -0 -0 -0 -0 -0 -0 -0 -0
nan nan nan nan nan nan nan nan nan nan nan nan nan nan nan nan nan nan nan nan nan nan nan nan nan nan nan nan nan nan nan nan nan nan nan nan nan nan nan nan nan nan nan nan nan nan nan nan nan nan nan nan nan nan nan nan nan nan nan nan nan nan nan nan nan nan nan nan nan nan nan nan nan nan -0 -0 nan nan -0 -0 -0 -0 -0 -0 -0 -0
nan nan nan nan nan nan nan nan nan nan nan nan nan nan nan nan nan nan nan nan nan nan nan nan nan nan nan nan nan nan nan nan nan nan nan nan nan nan nan nan nan nan nan nan nan nan nan nan nan nan nan nan nan nan nan nan nan nan nan nan nan nan nan nan nan nan nan nan nan nan nan nan -0 -0 -0 -0 -0 -0 -0 -0 -0 -0 -0 -0 -0 -0
nan nan nan nan nan nan nan nan nan nan nan nan nan nan nan nan nan nan nan nan nan nan nan nan nan nan nan nan nan nan nan nan nan nan nan nan nan nan nan nan nan nan nan nan nan nan nan nan nan nan nan nan nan nan nan nan nan nan nan nan nan nan nan nan nan nan nan nan nan nan nan nan -0 -0 -0 -0 -0 -0 -0 -0 -0 -0 -0 -0 -0 -0
nan nan nan nan nan nan nan nan nan nan nan nan nan nan nan nan nan nan nan nan nan nan nan nan nan nan nan nan nan nan nan nan nan nan nan nan nan nan nan nan nan nan nan nan nan nan nan nan nan nan nan nan nan nan nan nan nan nan nan nan nan nan nan nan nan nan nan nan nan nan -1 -0 -0 -0 -0 -0 -0 -0 -0 -0 -0 -0 -0 -0 -0 -0
nan nan nan nan nan nan nan nan nan nan nan nan nan nan nan nan nan nan nan nan nan nan nan nan nan nan nan nan nan nan nan nan nan nan nan nan nan nan nan nan nan nan nan nan nan nan nan nan nan nan nan nan nan nan nan nan nan nan nan nan nan nan nan nan nan nan nan nan nan nan -1 -1 -0 -0 -0 -0 -0 -0 -0 -0 -0 -0 -0 -0 -0 -0
nan nan nan nan nan nan nan nan nan nan nan nan nan nan nan nan nan nan nan nan nan nan nan nan nan nan nan nan nan nan nan nan nan nan nan nan nan nan nan nan nan nan nan nan nan nan nan nan nan nan nan nan nan nan nan nan nan nan nan nan nan nan nan nan nan nan nan nan nan nan nan nan -1 -1 -0 -0 -0 -0 -0 -0 -0 -0 -0 -0 -0 -0
nan nan nan nan nan nan nan nan nan nan nan nan nan nan nan nan nan nan nan nan nan nan nan nan nan nan nan nan nan nan nan nan nan nan nan nan nan nan nan nan nan nan nan nan nan nan nan nan nan nan nan nan nan nan nan nan nan nan nan nan nan nan nan nan nan nan nan nan nan nan nan nan nan nan -1 -1 -0 -0 -0 -0 -0 -0 -0 -0 -0 -0
nan nan nan nan nan nan nan nan nan nan nan nan nan nan nan nan nan nan nan nan nan nan nan nan nan nan nan nan nan nan nan nan nan nan nan nan nan nan nan nan nan nan nan nan nan nan nan nan nan nan nan nan nan nan -31 -25 -25 -20 -20 nan nan nan nan nan nan nan nan nan nan nan nan nan nan nan -2 -2 -1 -1 -0 -0 -0 -0 -0 -0 -0 -0
nan nan nan nan nan nan nan nan nan nan nan nan nan nan nan nan nan nan nan nan nan nan nan nan nan nan nan nan nan nan nan nan nan nan nan nan nan nan nan nan nan nan nan nan nan nan nan nan nan nan nan nan nan nan -26 -22 -22 -19 -18 -20 -20 nan nan nan nan nan nan nan nan nan nan nan nan nan -3 -2 -0 -0 -0 -0 -0 -0 -0 -0 -0 -0
nan nan nan nan nan nan nan nan nan nan nan nan nan nan nan nan nan nan nan nan nan nan nan nan nan nan nan nan nan nan nan nan nan nan nan nan nan nan nan nan nan nan nan nan nan nan nan nan nan nan nan nan nan nan nan nan nan nan nan -25 -25 nan nan nan nan nan nan nan nan nan nan nan nan nan nan nan -0 -0 -0 -0 -0 -0 -0 -0 -0 -0
nan nan nan nan nan nan nan nan nan nan nan nan nan nan nan nan nan nan nan nan nan nan nan nan nan nan nan nan nan nan nan nan nan nan nan nan nan nan nan nan nan nan nan nan nan nan nan nan nan nan nan nan nan nan nan nan nan nan nan nan nan nan nan nan nan nan nan nan nan nan nan nan nan nan nan -2 -0 -0 -0 -0 -0 -0 -0 -0 -0 -0
nan nan nan nan nan nan nan nan nan nan nan nan nan nan nan nan nan nan nan nan nan nan nan nan nan nan nan nan nan nan nan nan nan nan nan nan nan nan nan nan nan nan nan nan nan nan nan nan nan nan nan nan nan nan nan nan nan -18 -16 -16 -16 -16 -15 -13 -13 nan nan nan nan nan nan nan nan nan nan -1 -0 -0 -0 -0 -0 -0 -0 -0 -0 -0
nan nan nan nan nan nan nan nan nan nan nan nan nan nan nan nan nan nan nan nan nan nan nan nan nan nan nan nan nan nan nan nan nan nan nan nan nan nan nan nan nan nan nan nan nan nan nan nan nan nan nan nan nan nan nan -19 -19 -15 -14 -13 -13 -13 -12 -11 -11 nan nan nan nan nan nan nan nan nan nan -0 -0 -0 -0 -0 -0 -0 -0 -0 -0 -1
nan nan nan nan nan nan nan nan nan nan nan nan nan nan nan nan nan nan nan nan nan nan nan nan nan nan nan nan nan nan nan nan nan nan nan nan nan nan nan nan nan nan nan nan nan nan nan nan nan nan nan nan nan nan nan -20 -20 -17 -15 -14 -14 -14 nan nan nan nan nan nan nan nan nan nan nan nan -0 -0 -0 -0 -0 -0 -0 -1 -1 -1 -1 -3
nan nan nan nan nan nan nan nan nan nan nan nan nan nan nan nan nan nan nan nan nan nan nan nan nan nan nan nan nan nan nan nan nan nan nan nan nan nan nan nan nan nan nan nan nan nan nan nan nan nan nan nan nan nan nan nan nan nan nan nan nan nan nan nan nan nan nan nan nan nan nan nan nan nan -0 -0 -0 -0 -0 -0 -0 -1 -1 -3 -3 -6
nan nan nan nan nan nan nan nan nan nan nan nan nan nan nan nan nan nan nan nan nan nan nan nan nan nan nan nan nan nan nan nan nan nan nan nan nan nan nan nan nan nan nan nan nan nan nan nan nan nan nan nan nan nan nan nan nan nan nan nan nan nan nan nan nan nan nan nan nan nan nan nan -0 -0 -0 -0 -0 -0 -0 -0 -0 -0 -3 -4 -4 -9
nan nan nan nan nan nan nan nan nan nan nan nan nan nan nan nan nan nan nan nan nan nan nan nan nan nan nan nan nan nan nan nan nan nan nan nan nan nan nan nan nan nan nan nan nan nan nan nan nan nan nan nan nan nan nan nan nan nan nan nan nan nan nan nan nan nan nan nan nan nan nan -0 -0 -0 -0 -0 -0 -0 -0 -0 -0 -2 -6 -16 -16 nan
nan nan nan nan nan nan nan nan nan nan nan nan nan nan nan nan nan nan nan nan nan nan nan nan nan nan nan nan nan nan nan nan nan nan nan nan nan nan nan nan nan nan nan nan nan nan nan nan nan nan nan nan nan nan nan nan nan nan nan nan nan nan nan nan nan nan nan nan nan nan -0 -0 -0 -0 -0 -0 -0 -0 -0 -0 -0 -1 -12 nan nan nan
nan nan nan nan nan -12 nan nan nan nan -0 -0 -0 -0 nan nan nan nan nan nan nan nan nan nan nan nan nan nan nan nan nan nan nan nan nan nan nan nan nan nan nan nan nan nan nan nan nan nan nan nan nan nan nan nan nan nan nan nan nan nan nan nan nan nan nan nan nan nan nan nan -0 -0 -0 -0 -0 -0 -0 -0 -0 -0 -0 -5 nan nan nan nan
nan nan nan nan nan nan nan nan nan nan -21 -0 -12 -12 nan nan nan nan nan nan nan nan nan nan nan nan nan nan nan nan nan nan nan nan nan nan nan nan nan nan nan nan nan nan nan nan nan nan nan nan nan nan nan nan nan nan nan nan nan nan nan nan nan nan nan nan nan nan nan nan -0 -0 -0 -0 -0 -0 -0 -0 -0 -0 -0 nan nan nan nan nan
nan nan nan nan nan nan nan nan nan nan nan nan nan nan nan nan nan nan nan nan nan nan nan nan nan nan nan nan nan nan nan nan nan nan nan nan nan nan nan nan nan nan nan nan nan nan nan nan nan nan nan nan nan nan nan nan nan nan nan nan nan nan nan nan nan nan nan -2 -0 -0 -0 -0 -0 -0 nan nan nan nan nan nan nan nan nan nan nan nan
nan nan nan nan nan nan nan nan nan nan nan nan nan nan nan nan nan nan nan nan nan nan nan nan nan nan nan nan nan nan nan nan nan nan nan nan nan nan nan nan nan nan nan nan nan nan nan nan nan nan nan nan nan nan nan nan nan nan nan nan nan nan nan nan nan nan nan nan nan nan nan nan nan nan nan nan nan nan -0 -0 -0 -0 -3 nan nan nan
nan nan nan nan nan nan nan nan nan nan nan nan nan nan nan nan nan nan nan nan nan nan nan nan nan nan nan nan nan nan nan nan nan nan nan nan nan nan nan nan nan nan nan nan nan nan nan nan nan nan nan nan nan nan nan nan nan nan nan nan nan nan nan nan nan nan nan nan nan nan nan nan nan nan nan nan nan nan -0 -0 -0 -0 -0 -15 -15 nan
nan nan nan nan nan nan nan nan nan nan nan nan nan nan nan nan nan nan nan nan nan nan nan nan nan nan nan nan nan nan nan nan nan nan nan nan nan nan nan nan nan nan nan nan nan nan nan nan nan -9 -8 nan nan nan nan nan nan nan nan nan nan nan nan nan nan nan nan nan nan nan nan nan nan nan nan nan nan nan -0 -0 -0 -0 -0 -0 -0 -2
nan nan nan nan nan nan nan nan nan nan nan nan nan nan nan nan nan nan nan nan nan nan nan nan nan nan nan nan nan nan nan nan nan nan nan nan nan nan nan nan nan nan nan -13 -13 -11 -9 -6 -6 -4 -3 -4 nan nan nan nan nan nan nan nan nan nan nan nan nan nan nan nan nan nan nan nan nan nan nan nan -0 -0 -0 -0 -0 -0 -0 -0 -0 -0
nan nan nan nan nan nan nan nan nan nan nan nan nan nan nan nan nan nan nan nan nan nan nan nan nan nan nan nan nan nan nan nan nan nan nan nan nan nan nan -20 -20 -23 -16 -8 -8 -7 -6 -4 -4 -4 -5 -8 nan nan nan nan nan nan nan nan nan nan nan nan nan nan nan nan nan nan nan nan nan nan nan nan nan nan -0 -0 -0 -0 -0 -0 -0 -0
nan nan nan nan nan nan nan nan nan nan nan nan nan nan nan nan nan nan nan nan nan nan nan nan nan nan nan -29 nan nan nan nan nan nan nan nan nan nan nan -19 -19 -17 -17 -13 -13 -8 -6 -3 -3 -3 -5 -7 -8 -8 nan nan nan nan nan nan nan nan nan nan nan nan nan nan nan nan nan nan nan nan nan nan nan nan nan nan nan nan nan nan nan -0
nan nan nan nan nan nan nan nan nan nan nan nan nan nan nan nan nan nan nan nan nan nan nan nan nan nan nan nan nan nan -47 nan nan nan nan nan nan nan nan -18 -18 -17 -22 -22 -22 -12 -5 -4 -4 -4 -4 -6 -7 -7 nan nan nan nan nan nan nan nan nan nan nan nan nan nan nan nan nan nan nan nan nan nan nan nan nan nan nan nan nan nan nan nan
nan nan nan nan nan nan nan nan nan nan nan nan nan nan nan nan nan nan nan nan nan nan nan nan nan nan nan nan nan nan nan nan nan nan nan nan nan nan nan -24 -24 -17 -18 -21 -21 -14 -7 -4 -4 -4 -3 -5 -5 -5 -8 nan nan nan -6 nan nan nan nan nan nan nan nan nan nan nan nan nan nan nan nan nan nan nan nan nan nan nan nan nan nan nan
nan nan nan nan nan nan nan nan nan nan nan nan nan nan nan nan nan nan nan nan nan nan nan nan nan nan nan nan nan nan nan nan nan nan nan nan nan nan nan nan nan -27 -21 -18 -18 -15 -10 -6 -6 -5 -6 -6 -4 -4 -4 -7 -7 -3 -0 -4 -4 nan nan nan nan nan nan nan nan nan nan nan nan nan nan nan nan nan nan nan nan nan nan nan nan nan
-21 nan nan nan nan nan nan nan nan nan nan nan nan nan nan nan nan nan nan nan nan nan nan nan nan nan nan nan nan nan nan nan nan nan nan nan nan nan nan nan nan nan nan -23 -23 -13 -16 -10 -10 -6 -7 -7 -5 -5 -6 -8 -8 -6 -5 nan nan nan nan nan nan nan nan nan nan nan nan nan nan nan nan nan nan nan nan nan nan nan nan nan nan nan
nan nan nan nan nan nan nan nan nan nan nan nan nan nan nan nan nan nan nan nan nan nan nan nan nan nan -19 nan nan nan nan nan nan nan nan nan nan nan nan nan nan nan nan nan nan nan nan nan nan -9 -9 -9 -6 -6 -5 -7 -7 -9 -11 nan nan -8 nan nan nan nan nan nan nan nan nan nan nan nan nan nan nan nan nan nan nan nan nan nan nan -18
nan nan nan nan nan nan nan nan nan nan nan nan nan nan nan nan nan nan nan nan nan nan nan nan nan nan -15 -13 nan nan nan nan nan nan nan nan nan nan nan nan nan nan nan nan nan nan nan nan nan nan nan nan nan nan nan nan nan nan nan nan nan nan nan nan nan nan nan nan nan nan nan nan nan nan nan nan nan nan nan nan nan nan nan -23 -23 -26
nan nan nan nan nan nan nan nan nan nan nan -29 nan nan nan nan -43 -43 nan nan nan nan nan nan nan -17 -9 -11 -15 -15 nan nan nan nan nan nan nan nan nan nan nan nan nan nan nan nan nan nan nan nan nan nan nan nan nan -9 -9 -9 -8 nan nan nan nan nan nan nan nan nan nan nan nan nan nan nan nan nan nan nan nan nan nan nan nan nan nan nan
-27 -24 -26 -26 -26 -28 -19 -25 nan nan nan nan nan nan nan nan nan nan -35 nan nan nan nan nan nan -11 -6 -6 nan nan nan nan nan nan nan nan nan nan nan nan nan nan nan nan nan nan nan nan nan nan nan nan nan nan nan nan nan nan nan nan nan nan nan nan nan nan nan nan nan nan nan nan nan nan nan nan nan nan nan nan nan nan nan nan nan nan
-30 -29 -30 -30 -30 -26 -27 -29 -30 -30 -25 -22 -25 -25 nan nan nan nan nan nan nan nan nan -27 -27 -13 -7 -6 -14 -14 nan nan nan nan nan nan nan nan nan nan nan nan nan nan nan nan nan nan nan nan nan nan nan nan nan nan nan nan nan nan nan nan nan nan nan nan nan nan nan nan nan nan nan nan nan nan nan nan nan nan nan nan nan nan nan nan
-23 -22 -26 -26 -26 -27 -25 -26 -29 -29 -25 -25 nan nan nan nan nan nan nan nan nan nan -15 -25 -25 -13 -10 -11 -12 -12 -7 -13 nan nan nan nan nan nan nan nan nan nan nan nan nan nan nan nan nan nan nan nan nan nan nan nan nan nan nan nan nan nan nan nan nan nan nan nan nan nan nan nan nan nan nan nan nan nan nan nan nan nan nan nan nan nan
nan nan -27 -22 -22 -24 -27 nan nan nan nan nan nan nan nan -25 -1 -1 nan nan nan nan -20 -13 -13 -10 -9 -11 -11 -11 -12 -12 -11 -11 nan nan nan nan nan nan nan nan nan nan nan nan nan nan nan nan nan nan nan nan nan nan nan nan nan nan nan nan nan nan nan nan nan nan nan nan nan nan nan nan nan nan nan nan nan nan nan nan nan nan nan nan
nan nan -28 -27 -27 nan nan nan nan nan nan nan nan nan nan nan nan nan nan nan nan -18 -9 -7 -7 -5 -3 -6 -9 -9 -11 -11 -13 -13 -24 nan nan nan nan nan nan nan nan nan nan nan nan nan nan nan nan nan nan nan nan nan nan nan nan nan nan nan nan nan nan nan nan nan nan nan nan nan nan nan nan nan nan nan nan nan nan nan nan nan nan nan
-25 -27 -26 nan nan nan nan -20 -15 -15 -14 -16 -14 -14 -14 -20 -23 -23 -24 -20 -20 -14 -12 -9 -9 -5 -4 -5 -6 -6 -7 -8 -9 -9 -9 nan nan nan nan nan nan nan nan nan nan nan nan nan nan nan nan nan nan nan nan nan nan nan nan nan nan nan nan nan nan nan nan nan nan nan nan nan nan nan nan nan nan nan nan nan nan nan nan nan nan nan
Wind_Speed
3 3 4 5 5 4 4 5 5 4 3 2 2 2 2 2 3 3 3 3 3 4 4 4 4 5 6 9 10 10 10 9 9 8 7 7 6 6 5 5 5 4 4 4 3 3 2 2 1 1 1 1 1 2 2 3 3 4 4 5 5 5 6 6 6 6 6 7 7 7 7 7 8 8 9 9 10 10 11 11 12 12 12 13 13 14
3 3 3 4 4 4 3 4 4 3 3 2 1 1 2 2 2 2 2 2 3 3 3 3 4 4 5 6 8 9 9 8 8 7 6 6 5 5 4 4 4 3 3 3 2 2 2 1 1 0 1 1 1 2 2 3 3 4 4 4 5 5 5 6 6 6 6 7 7 7 7 7 8 9 9 10 10 11 11 12 12 12 13 13 14 14
2 1 1 2 2 2 2 2 2 2 3 2 2 2 2 2 2 1 1 1 2 2 3 3 3 4 4 5 6 7 7 7 6 6 5 5 4 4 3 3 3 3 2 2 1 1 1 0 0 0 1 1 2 2 2 3 3 3 4 4 4 5 5 5 6 6 6 7 7 7 7 8 8 9 10 10 11 11 12 12 13 13 14 14 14 15
2 2 1 1 2 2 2 2 2 2 2 2 2 2 3 2 2 1 1 1 1 2 2 2 3 3 3 3 5 6 6 6 5 5 4 4 3 3 2 2 2 2 1 1 1 1 0 0 1 1 1 2 2 2 3 3 3 4 4 4 4 5 5 5 6 6 7 7 7 7 8 8 9 10 10 11 11 12 12 13 13 14 14 14 15 15
3 2 2 1 2 2 2 1 1 1 2 2 2 2 2 2 1 1 1 2 2 2 1 2 2 3 3 3 4 5 5 5 4 4 3 3 3 2 2 2 1 1 1 1 0 0 1 1 1 1 2 2 3 3 3 3 4 4 4 5 5 5 6 6 6 7 7 7 8 8 8 9 9 10 10 11 11 12 13 13 13 14 14 15 15 16
2 2 2 2 2 2 1 1 1 1 2 2 2 2 2 1 1 1 2 2 2 2 1 1 1 1 2 2 3 4 4 4 3 3 3 2 2 2 2 2 1 1 1 0 0 1 1 2 2 2 3 3 3 4 4 4 5 5 5 5 6 6 6 7 7 7 8 8 8 8 9 9 9 10 10 11 11 12 13 13 14 14 15 15 16 16
2 2 2 2 2 2 2 2 2 2 2 2 2 2 1 1 2 2 2 2 2 2 2 2 2 1 1 1 2 3 3 2 2 2 2 2 2 2 2 2 1 1 0 1 1 1 2 2 3 3 3 4 4 4 5 5 5 5 6 6 6 6 7 7 7 8 8 8 8 8 9 9 9 10 10 11 11 12 13 13 14 14 15 15 16 16
3 3 3 3 2 2 2 3 3 2 2 2 2 2 2 2 2 2 2 2 2 2 2 2 2 2 2 2 2 2 2 1 1 1 1 2 2 2 2 2 1 0 0 1 2 2 2 3 3 4 4 4 5 5 5 5 5 5 6 6 6 7 7 8 8 8 8 8 8 8 9 9 9 10 10 11 12 12 13 14 14 15 15 16 16 17
3 3 3 2 2 2 2 2 3 3 2 2 2 2 3 2 2 2 3 3 2 2 2 2 2 2 2 2 2 2 2 2 2 2 2 2 2 2 2 1 1 0 1 2 2 3 3 3 4 4 5 5 5 5 5 5 5 5 5 6 6 7 7 8 8 8 8 8 8 8 9 9 10 11 11 12 12 13 14 14 15 15 16 16 17 17
3 3 3 2 2 2 2 2 2 2 2 2 3 3 3 3 3 3 3 3 3 2 2 2 1 1 2 2 2 2 2 2 2 2 2 2 1 1 1 1 1 1 2 2 3 3 4 4 4 5 5 5 6 6 5 5 4 5 5 6 6 7 7 7 7 7 7 7 8 9 9 10 11 11 12 13 13 14 14 15 15 16 16 17 17 18
3 3 3 2 2 2 2 1 1 1 2 3 3 3 3 3 3 2 2 2 3 3 2 1 1 1 1 2 2 2 2 2 2 3 3 2 2 1 0 0 1 1 2 3 4 4 5 5 6 6 6 6 6 6 5 5 5 5 5 6 6 6 6 6 6 6 7 8 8 9 10 11 12 12 13 13 14 14 15 15 15 16 16 17 17 18
2 2 2 2 2 1 1 1 1 1 2 2 3 3 3 2 2 2 2 1 1 2 2 2 1 0 0 1 1 1 1 1 2 2 2 3 3 2 2 2 2 2 3 4 5 5 6 6 6 6 6 6 6 6 6 5 5 5 5 6 6 5 5 5 6 6 7 8 9 10 11 12 12 13 13 14 14 15 15 15 16 16 16 17 17 17
2 1 2 1 1 1 1 1 1 1 2 2 2 2 1 1 1 1 2 1 0 1 1 2 2 2 1 1 0 0 1 1 1 1 2 2 2 2 2 2 2 2 2 3 3 4 4 5 5 6 6 6 6 6 6 6 5 5 5 5 5 5 5 5 6 7 8 9 10 10 11 12 12 13 14 14 14 15 15 15 16 16 16 17 17 17
2 1 2 1 1 1 1 1 1 2 1 1 1 1 1 0 1 2 2 1 1 1 1 1 2 2 2 1 1 1 1 1 1 2 2 2 1 1 1 1 1 1 1 2 2 2 3 3 3 4 5 5 5 6 6 6 6 6 6 6 5 5 5 6 7 7 8 9 10 11 11 12 13 13 14 14 15 15 15 15 16 16 16 16 17 17
1 2 2 2 1 1 1 1 2 2 1 1 1 1 1 1 1 2 2 1 1 1 1 2 2 2 2 2 2 1 2 2 2 2 2 2 2 1 0 1 1 1 1 1 2 2 3 2 2 2 3 4 5 5 6 7 7 7 7 7 7 7 7 7 7 8 9 10 10 11 11 12 13 13 14 14 14 15 15 15 16 16 16 16 17 17
1 2 2 2 1 1 1 1 2 2 1 1 1 1 2 1 1 1 1 1 1 1 1 2 2 2 3 3 2 2 2 2 2 1 1 2 2 1 0 0 1 1 1 1 2 2 2 1 2 2 3 4 6 7 8 8 9 9 9 9 8 8 8 8 8 9 9 10 11 11 12 12 13 13 14 14 14 15 15 15 15 15 16 16 16 16
1 2 2 2 1 1 0 1 1 1 1 1 1 1 1 1 1 1 1 1 0 1 1 1 1 1 2 3 3 2 1 2 1 1 0 1 2 2 0 0 0 1 1 1 2 2 2 2 2 2 3 5 7 8 9 9 10 10 10 10 10 9 9 9 9 9 10 11 11 12 13 13 13 14 14 14 14 14 15 15 15 15 15 16 16 16
1 1 2 2 1 1 0 1 1 1 1 1 1 1 1 1 1 1 1 1 1 1 1 1 1 1 0 2 2 2 1 2 1 1 1 2 2 2 0 0 0 1 2 2 2 2 2 2 3 3 4 7 8 9 10 10 10 10 10 10 10 10 10 10 10 10 11 11 12 13 13 14 14 14 14 14 14 15 15 15 15 15 16 16 16 16
1 1 1 1 1 1 1 1 1 1 1 1 1 1 1 1 1 1 1 1 1 1 1 1 1 1 1 1 2 2 0 2 2 2 2 2 2 2 1 1 0 1 2 2 2 2 2 2 3 5 6 7 8 9 9 9 9 9 9 9 9 9 10 10 11 11 12 13 14 14 14 14 14 14 14 15 15 15 16 16 16 16 16 16 16 16
1 1 1 1 1 1 1 1 1 1 1 1 1 1 1 1 1 2 1 1 1 1 1 1 0 1 1 2 3 3 2 3 3 2 2 2 3 2 1 0 1 1 2 2 2 2 2 2 2 3 5 6 6 7 7 7 7 7 7 7 8 8 9 10 12 13 13 14 15 15 15 15 15 15 15 15 16 16 17 17 17 17 17 17 17 17
2 1 0 1 1 2 1 1 1 1 1 2 2 2 1 1 1 1 1 1 1 1 1 1 0 1 1 1 2 3 2 2 2 1 2 2 2 2 1 0 0 1 2 2 2 2 1 1 1 2 3 5 6 7 7 8 8 8 8 8 8 9 10 11 12 13 14 15 15 15 15 15 15 16 16 16 17 17 17 17 17 17 17 18 18 19
2 1 1 1 1 2 1 1 1 1 2 2 2 2 1 1 1 0 0 1 1 1 0 1 2 2 1 2 3 3 2 1 0 1 1 2 2 2 2 1 0 0 1 2 2 1 1 1 2 3 4 6 8 9 9 9 10 10 10 10 10 10 11 12 12 13 14 14 14 15 15 15 16 16 17 17 17 18 18 18 18 18 18 19 19 20
3 2 2 2 2 2 2 1 1 2 2 3 2 2 2 2 2 2 2 1 1 1 2 2 2 2 1 2 3 3 3 2 2 1 1 1 2 2 2 0 0 0 1 2 2 2 1 2 2 3 4 7 8 9 9 10 10 10 10 10 10 10 11 11 12 13 13 14 15 15 15 16 16 17 17 17 18 18 18 18 18 18 19 19 20 20
3 3 3 3 3 2 2 2 1 2 2 2 2 2 2 3 3 3 3 2 2 1 1 1 1 2 2 2 3 3 3 2 1 2 2 2 2 2 2 0 0 1 2 2 2 1 1 2 2 2 3 5 7 8 9 9 10 10 10 10 10 10 11 11 12 13 14 15 16 16 17 17 17 18 18 18 18 18 18 18 18 19 19 19 20 20
3 3 2 2 3 3 2 2 2 2 1 1 1 1 1 1 1 1 1 1 1 1 1 2 2 2 2 2 2 2 2 1 1 2 2 1 2 2 1 0 0 1 2 2 2 1 1 1 2 2 2 4 6 7 8 9 9 10 10 11 11 12 12 13 14 14 15 16 17 18 18 19 19 19 19 19 18 18 18 18 19 19 19 19 19 19
3 3 2 3 3 3 3 2 2 1 1 0 0 1 1 1 2 2 2 1 1 1 2 1 1 1 2 1 1 2 2 1 1 2 2 1 1 2 2 1 0 1 2 2 2 1 1 2 2 2 2 3 4 6 8 9 10 11 12 13 13 14 14 15 15 16 17 18 18 19 20 20 20 20 20 19 19 19 19 19 19 19 19 19 18 17
3 3 3 3 3 3 2 2 3 3 3 2 1 1 1 2 2 2 1 1 0 1 1 0 1 1 1 1 1 2 2 2 1 1 2 1 0 2 2 1 0 1 2 2 2 2 2 2 2 2 2 2 2 4 8 10 12 13 14 14 15 15 16 16 17 17 18 18 19 20 20 20 20 20 20 20 20 19 19 19 19 19 18 17 15 13
3 3 4 4 4 3 3 4 4 4 4 4 4 2 1 2 2 1 1 1 0 1 1 0 1 1 1 1 2 2 2 2 1 1 1 1 0 1 2 1 1 1 2 2 2 2 2 2 2 2 2 1 2 4 7 10 11 13 14 15 16 16 17 17 18 18 18 19 19 19 20 20 20 21 21 20 20 20 19 19 19 18 16 13 10 7
3 3 4 4 4 4 4 4 4 4 4 4 4 2 1 2 2 2 2 1 1 1 1 0 1 1 1 1 2 2 2 2 2 1 1 2 1 2 2 2 2 2 2 2 2 2 2 2 2 1 1 2 3 4 5 8 9 10 12 14 15 16 16 17 17 18 18 19 19 19 20 20 20 20 20 20 20 20 20 20 19 16 12 9 7 6
3 3 3 4 4 3 3 3 3 4 4 4 3 1 2 2 2 2 2 1 1 1 0 0 1 1 1 1 2 2 2 2 2 1 3 2 1 2 2 2 2 2 2 2 2 2 2 2 2 1 1 3 4 4 5 5 6 6 7 10 11 12 14 16 16 17 17 18 18 19 19 20 20 20 20 20 20 20 20 21 19 15 9 7 6 6
3 3 3 3 3 3 2 2 2 3 4 4 3 2 2 1 1 2 2 2 2 2 1 1 0 0 0 1 1 1 2 3 3 2 3 3 1 2 1 2 2 2 2 2 2 3 3 2 2 1 2 3 4 4 5 5 5 5 5 6 7 8 12 13 14 15 15 16 17 18 19 19 19 19 19 20 20 21 21 22 19 15 9 7 7 7
2 3 3 3 3 3 3 3 3 3 3 3 3 2 1 1 1 1 1 2 2 2 2 1 0 0 0 0 1 1 2 3 3 3 4 3 1 1 1 1 2 2 1 1 1 1 3 3 3 2 3 3 4 4 4 5 4 4 5 5 5 6 10 11 11 12 12 13 15 16 17 18 18 19 19 20 20 21 22 22 20 16 10 8 7 8
2 2 3 3 3 3 3 3 3 2 2 2 2 2 1 1 1 1 1 2 2 2 2 1 1 0 0 1 1 2 2 3 3 4 5 3 2 1 1 1 2 2 2 1 0 0 2 3 3 3 3 3 3 4 4 4 4 4 4 4 4 5 7 8 8 8 8 9 11 12 14 15 16 17 18 19 20 20 21 21 20 18 13 9 8 8
2 2 3 3 3 3 2 2 2 2 2 2 2 1 1 1 1 1 1 1 1 2 3 2 2 1 1 1 1 2 2 3 3 4 5 3 2 1 1 1 2 2 2 2 2 2 2 3 4 4 4 4 4 3 4 4 4 4 4 4 4 4 5 5 5 5 6 6 7 7 9 11 12 14 16 17 18 18 19 20 20 20 18 13 10 9
2 2 2 2 2 2 2 2 2 2 2 2 1 1 1 1 1 1 1 0 1 1 2 3 3 3 2 1 1 2 3 3 3 4 4 3 1 1 1 1 2 2 3 3 3 3 3 4 5 5 5 5 4 4 3 3 3 3 3 4 4 4 4 4 4 5 5 6 6 6 6 7 8 9 11 13 15 17 18 19 20 21 21 18 16 13
2 2 2 2 2 2 2 2 2 2 2 2 1 1 1 1 1 1 0 0 0 0 1 1 2 3 3 2 2 2 3 3 3 3 3 1 1 1 2 2 2 3 3 3 3 3 4 4 5 6 6 6 5 4 3 3 3 3 3 3 4 4 4 4 4 4 4 5 5 6 6 6 6 7 8 12 15 17 18 19 20 21 21 21 20 17
1 1 2 2 2 2 2 1 1 1 1 1 1 1 1 1 1 1 1 0 1 1 1 1 1 1 1 2 2 3 4 3 3 3 2 1 1 1 2 2 3 3 3 3 4 4 4 5 6 6 6 6 5 4 4 3 3 3 4 4 4 4 5 5 5 5 4 5 6 6 6 6 7 7 8 12 14 15 17 18 18 19 20 20 20 19
1 1 2 1 1 1 1 1 1 1 1 1 1 1 1 1 1 1 1 1 2 2 2 2 2 3 4 4 4 4 4 4 4 3 3 2 2 2 2 3 3 3 3 3 4 4 4 5 6 6 5 5 5 5 5 5 4 4 4 4 4 5 5 5 4 4 4 5 6 7 8 7 7 7 7 9 9 9 10 10 11 13 16 16 17 17
1 2 2 1 1 1 1 1 1 1 1 1 1 1 1 2 2 2 2 2 2 2 2 2 3 3 4 5 5 6 5 5 4 4 3 3 2 2 3 3 3 3 3 3 4 4 5 5 5 5 5 5 6 6 5 5 5 5 5 5 5 4 4 4 4 4 4 5 6 7 8 7 7 6 6 6 6 6 6 6 7 9 9 8 10 12
1 1 1 1 1 1 1 1 1 1 1 1 2 2 2 3 3 3 3 3 2 2 2 2 3 3 3 4 4 4 4 4 4 4 3 3 3 3 3 4 4 4 4 4 4 4 5 5 5 6 6 6 6 6 5 5 6 6 7 6 5 4 4 4 4 4 4 5 5 6 6 6 6 6 6 6 5 5 5 5 6 7 7 6 6 7
1 1 1 1 1 2 2 1 1 1 2 2 2 2 2 2 2 2 2 2 2 2 2 2 2 3 3 3 3 3 3 4 5 5 4 4 4 4 4 4 4 4 4 4 4 4 5 5 6 6 6 6 7 7 7 7 8 9 9 7 7 6 6 6 6 5 5 5 5 5 7 7 7 7 7 7 7 6 6 6 7 7 8 6 6 6
1 1 1 1 2 2 1 2 2 3 3 2 2 2 2 2 2 2 2 2 2 2 2 2 2 3 3 4 4 4 4 4 5 6 6 6 6 6 5 5 4 4 4 4 5 5 5 5 6 6 6 6 6 7 7 7 8 8 8 8 8 8 8 7 6 4 4 5 5 6 8 8 7 7 7 7 7 7 8 8 9 9 9 7 7 6
2 1 1 2 2 2 2 2 2 2 2 2 2 2 2 2 2 2 2 2 2 2 2 2 2 3 3 4 4 4 4 4 5 6 6 7 6 6 6 6 5 5 4 4 4 4 4 5 6 6 6 6 6 7 8 8 8 8 8 8 8 7 6 5 4 4 5 6 6 7 7 8 7 7 7 7 7 7 8 9 10 11 11 9 8 7
2 2 1 2 2 2 2 1 1 1 1 2 2 2 2 2 2 2 2 2 2 2 2 2 2 3 4 4 4 4 3 4 4 5 5 6 7 6 6 6 6 5 5 4 4 4 4 5 6 6 5 5 6 7 8 8 8 8 7 8 8 7 6 6 6 6 6 6 6 6 7 7 7 7 7 7 7 7 7 8 8 9 10 9 8 7
2 2 2 2 2 2 2 2 2 2 2 2 2 2 2 2 2 2 2 2 2 2 2 2 2 3 3 3 4 4 3 3 3 3 4 5 6 7 6 6 5 5 5 5 4 4 4 5 5 5 5 5 6 7 8 8 9 9 9 8 8 9 9 8 7 7 7 8 7 7 7 7 6 7 7 7 7 8 8 8 9 9 8 7 6 6
2 2 2 2 2 2 2 2 2 2 2 2 2 2 2 2 2 2 3 3 3 3 2 2 2 3 3 4 4 3 3 3 3 3 3 3 4 4 4 5 5 5 4 5 5 5 5 5 5 6 6 6 7 8 8 8 9 9 8 8 8 8 8 8 8 8 8 8 8 8 8 7 6 7 8 8 8 8 8 8 8 7 6 5 5 5
2 2 2 2 2 2 2 2 2 2 2 2 2 2 2 2 2 2 2 2 2 3 3 2 3 3 4 4 4 4 4 4 4 3 3 3 3 3 3 4 4 5 4 5 5 6 6 6 6 6 6 7 7 8 8 8 9 9 9 8 8 8 8 7 7 7 8 7 7 7 6 6 7 7 9 9 9 8 7 6 5 5 5 5 6 6
2 2 2 2 2 2 2 2 2 2 2 2 2 2 2 2 3 3 3 2 2 3 3 3 3 3 4 4 4 4 5 5 5 4 4 3 3 3 3 3 3 4 4 5 6 6 7 7 7 7 7 7 8 8 9 8 9 9 9 8 8 8 9 8 7 7 7 7 7 6 5 6 7 8 9 9 8 6 5 5 4 4 5 5 6 6
1 1 1 1 1 1 2 2 2 2 2 3 3 3 3 3 4 5 3 3 2 2 2 3 3 4 4 4 4 4 4 5 5 5 4 4 3 3 3 3 3 4 4 4 5 5 6 7 8 9 9 9 9 9 9 9 9 8 8 7 7 8 9 8 8 7 7 7 7 7 6 6 6 7 7 7 7 6 6 6 6 6 6 6 6 6
1 1 2 2 2 2 2 2 3 3 3 3 3 3 3 2 2 2 2 2 2 2 2 3 4 4 5 5 5 5 5 5 4 4 4 4 3 3 3 4 4 4 5 4 4 4 4 5 6 8 10 11 11 10 9 9 8 8 7 7 7 7 8 8 8 7 7 7 7 6 5 5 5 4 4 6 7 9 9 8 8 7 6 5 5 5
2 2 2 2 2 3 3 3 3 3 3 3 3 3 3 2 2 2 2 2 2 3 3 3 4 4 5 5 5 5 5 5 5 5 5 4 3 3 4 4 4 4 5 5 4 4 3 3 4 5 7 12 14 13 9 8 8 7 7 7 6 6 6 7 7 6 7 7 6 5 4 4 4 4 4 5 8 10 10 9 9 8 6 5 4 5
Wind_Direction
38 24 12 20 30 37 33 39 54 71 73 62 53 53 57 57 54 55 64 76 83 87 87 87 85 86 89 95 98 100 101 102 102 102 101 100 99 99 99 98 98 97 97 97 96 96 94 91 84 67 26 344 328 322 323 325 327 330 332 333 333 333 332 330 328 326 324 323 323 323 324 323 320 315 311 307 304 302 301 299 298 297 296 295 293 292
42 32 19 27 38 48 42 38 53 77 93 85 77 69 71 66 60 54 56 76 89 97 100 98 96 95 95 98 100 102 103 103 103 103 102 101 99 98 97 97 96 96 97 98 99 100 99 99 87 50 359 337 327 323 323 325 326 328 329 329 329 328 327 324 323 321 318 318 317 317 316 313 310 307 305 304 304 303 303 302 301 300 299 297 296 295
80 67 48 47 59 68 69 51 58 75 97 98 91 82 78 77 73 68 64 77 89 99 106 107 107 106 106 106 107 108 108 107 107 107 107 106 104 102 100 97 97 96 96 96 96 96 91 77 33 353 333 323 319 316 315 315 317 318 319 319 320 318 318 316 314 313 311 310 309 308 306 306 305 305 306 306 307 306 306 305 304 303 302 301 299 299
129 124 121 92 78 77 87 81 75 73 85 87 82 76 76 81 83 79 77 79 77 80 91 104 112 116 119 119 119 119 119 119 118 118 120 119 117 115 110 107 103 101 98 96 88 72 37 352 331 319 312 307 303 301 301 302 304 306 307 308 309 308 308 306 306 305 304 304 303 302 303 304 305 306 308 308 308 308 308 307 307 306 305 303 302 301
138 132 126 103 84 76 72 76 77 74 72 72 71 71 71 77 77 66 50 55 57 57 56 78 103 120 130 135 136 136 135 134 135 136 139 139 137 133 129 123 118 112 106 97 65 348 320 309 303 300 295 293 290 290 292 294 296 298 299 301 302 303 302 302 302 301 301 301 301 302 303 304 306 307 308 308 309 309 309 308 308 307 306 305 303 302
128 116 107 95 86 78 58 49 51 58 64 64 67 68 69 67 64 57 52 51 50 45 34 36 63 98 123 139 145 146 145 146 149 154 158 155 153 149 144 139 134 131 135 167 277 285 286 287 286 286 286 285 287 288 291 292 294 296 298 299 300 300 300 300 300 300 301 301 302 302 303 304 305 306 307 307 307 308 308 308 308 307 306 305 304 303
101 83 79 75 70 63 50 34 30 37 57 67 69 66 58 53 52 56 58 56 51 41 24 12 14 31 58 104 126 135 139 143 147 151 155 148 144 138 131 127 126 133 162 231 258 268 274 277 279 281 283 285 287 289 291 293 295 296 297 298 298 299 299 299 300 300 300 301 302 303 303 304 305 306 306 306 307 307 307 307 307 306 306 305 304 304
91 78 74 73 67 58 45 28 21 22 41 62 70 68 53 44 38 36 34 33 34 35 30 15 11 12 18 41 68 85 94 95 82 77 98 98 98 97 94 88 88 103 242 260 266 270 274 277 280 282 284 287 289 291 293 294 295 296 296 296 296 297 298 298 299 300 301 301 303 304 305 306 306 307 307 307 307 307 306 306 306 305 305 304 304 304
95 91 79 78 79 77 62 33 17 13 27 50 65 71 67 52 36 24 18 14 13 18 37 32 20 8 359 11 31 51 58 64 62 62 75 78 82 82 80 77 67 315 279 279 280 282 284 287 290 292 293 296 298 299 299 298 296 295 294 294 295 296 297 298 300 301 303 305 307 308 309 310 310 310 309 309 309 308 307 306 305 305 304 304 303 303
85 87 80 69 74 87 92 67 24 7 19 42 56 67 74 66 54 36 22 9 359 358 24 48 44 15 347 349 4 27 46 45 42 44 56 57 88 117 122 140 205 259 283 293 300 303 305 308 310 310 312 313 313 312 309 304 299 295 293 293 294 295 297 299 302 305 308 311 313 314 314 314 313 313 312 311 310 309 308 306 305 304 304 303 302 302
80 79 79 70 64 68 88 95 66 15 24 39 45 49 56 68 74 68 45 13 355 351 1 18 43 39 346 335 344 9 37 32 21 16 19 17 26 46 45 357 299 298 311 322 326 328 328 328 328 328 327 327 325 322 316 309 302 296 293 293 293 295 297 302 307 311 315 316 317 317 316 316 315 314 313 312 311 309 308 307 305 304 303 302 301 300
92 87 84 84 75 65 65 71 55 36 38 49 52 48 36 40 73 93 88 48 1 349 349 345 340 317 230 259 309 3 41 42 23 7 3 8 11 14 15 8 358 348 341 345 344 343 339 337 335 334 332 331 327 322 316 309 302 296 293 292 293 296 300 306 311 315 316 317 317 316 316 315 314 313 312 311 310 309 307 306 305 304 302 301 300 299
88 89 91 92 91 87 84 76 56 45 46 66 80 84 62 7 50 87 97 95 8 331 347 342 331 311 275 243 192 106 79 64 41 14 8 4 4 9 21 13 1 354 352 351 346 340 337 335 332 330 328 325 321 316 311 305 300 296 294 293 295 298 302 307 311 313 313 314 314 314 313 313 313 312 311 311 310 309 307 306 305 303 302 300 299 298
70 68 74 78 79 80 86 86 81 75 65 83 104 121 148 79 53 63 69 36 337 323 2 357 330 314 311 329 352 62 93 72 45 23 11 349 337 346 34 8 346 335 350 344 328 318 316 325 326 324 321 319 315 312 307 303 299 296 295 295 296 298 300 303 305 307 308 309 310 310 311 311 311 311 311 310 309 308 307 306 305 303 302 300 299 298
74 72 75 74 69 59 59 77 83 85 88 94 102 101 78 48 50 56 61 28 350 343 13 5 342 326 322 331 340 16 72 68 50 28 4 327 310 302 67 13 332 318 331 322 304 297 301 310 311 308 310 309 305 300 297 297 295 294 293 293 294 294 295 297 300 302 304 305 306 307 309 310 311 311 311 310 309 308 307 306 304 303 301 300 298 297
86 88 93 90 81 66 64 88 97 103 107 93 77 73 69 55 53 65 81 64 14 8 31 23 2 345 330 328 336 3 64 74 70 51 2 308 296 290 106 40 330 308 306 293 283 282 290 290 283 281 287 288 288 287 285 288 289 289 289 290 290 291 292 294 296 299 301 303 305 307 308 310 310 311 310 309 308 307 306 305 303 302 300 299 298 298
86 92 102 101 100 94 74 91 107 116 119 87 76 82 97 109 114 113 107 106 77 57 65 71 57 15 331 324 327 343 46 79 88 94 46 284 282 277 183 120 292 290 287 276 268 266 270 271 268 266 266 271 274 276 277 279 282 284 286 287 289 291 292 294 297 299 301 304 306 308 309 310 311 310 310 309 308 307 306 305 304 302 301 301 300 299
86 101 107 111 122 136 135 91 87 91 86 74 65 61 70 99 110 111 107 105 94 86 86 99 116 132 251 302 299 305 30 60 54 19 334 294 283 278 262 125 235 279 283 275 266 259 255 255 254 254 258 262 265 268 270 273 277 281 285 288 292 295 298 299 301 303 305 306 308 310 311 311 311 311 310 309 309 308 308 307 305 305 304 303 302 302
97 104 109 121 132 133 99 85 82 82 83 93 88 68 39 27 39 56 65 80 97 110 114 110 132 168 184 256 272 280 337 40 27 358 329 310 297 291 310 33 352 301 289 280 272 264 258 258 258 260 261 263 266 268 270 273 277 282 286 291 296 300 303 304 305 307 308 309 311 311 312 312 312 311 311 311 311 310 310 309 308 307 306 305 305 304
85 76 103 126 116 91 62 58 76 105 123 126 111 93 68 36 29 33 30 39 57 84 100 99 116 243 234 269 282 294 336 24 21 356 318 305 296 294 309 353 327 297 289 278 273 268 268 272 277 277 275 279 282 285 287 291 293 295 297 299 301 302 303 305 306 308 309 310 311 312 312 312 313 313 313 313 313 313 312 311 310 309 308 307 306 306
73 55 37 110 103 91 79 74 94 118 126 109 93 80 73 54 38 24 8 25 34 39 50 52 286 253 251 281 292 299 323 12 12 339 302 298 294 290 288 265 251 268 278 275 273 274 294 304 301 301 301 307 311 314 317 315 314 313 310 307 305 303 302 303 304 305 307 308 309 311 312 313 313 314 315 314 314 314 313 312 311 310 309 308 307 307
75 55 8 54 80 95 109 122 114 103 104 97 96 99 111 99 82 35 328 43 50 45 31 241 233 232 235 265 279 283 287 297 242 250 285 294 289 281 269 235 189 231 265 273 279 293 327 325 314 309 314 317 320 321 320 318 316 314 311 308 305 303 302 301 302 304 305 307 309 310 311 312 313 314 314 314 313 312 312 311 310 310 309 308 307 307
76 67 45 51 64 81 99 101 92 84 88 99 119 142 158 151 159 176 192 176 176 192 212 222 231 241 253 265 273 275 272 242 202 175 170 257 270 271 268 225 92 351 269 273 283 302 327 318 307 305 310 315 316 316 315 314 312 311 310 308 306 306 306 306 307 309 310 311 312 313 313 313 313 313 312 312 311 311 310 310 309 308 308 307 306 305
63 62 54 52 56 64 74 73 68 65 74 92 115 142 160 165 171 178 186 182 182 187 204 245 313 318 307 290 283 280 274 249 177 149 154 221 249 260 271 341 22 306 276 268 272 292 320 309 300 299 307 311 312 312 314 314 316 318 320 321 321 322 321 321 320 320 319 318 317 316 314 313 312 312 311 310 309 309 308 308 307 307 306 305 304 303
56 57 54 50 49 50 52 50 52 55 66 79 88 104 136 155 160 163 167 148 116 74 42 30 3 328 304 299 293 287 282 293 128 134 146 209 251 267 280 297 315 284 277 274 280 299 328 311 303 303 308 309 312 316 320 326 332 337 341 342 341 339 337 333 330 327 323 320 318 316 314 313 312 311 310 309 309 308 308 307 307 306 305 304 303 302
41 38 33 34 34 34 31 24 15 6 2 56 103 105 86 66 51 37 21 15 25 40 47 39 346 286 281 292 290 286 290 316 103 126 131 155 279 288 287 282 263 275 285 288 301 320 331 310 303 301 301 304 317 329 339 347 351 353 354 350 346 343 339 333 329 325 322 319 316 315 313 312 311 310 310 309 309 309 308 307 306 306 305 304 303 301
10 2 358 359 359 355 348 335 324 316 310 297 276 239 111 79 61 39 358 325 6 76 79 70 277 273 282 284 277 276 289 305 312 128 128 121 280 284 281 281 302 327 308 302 303 308 313 302 294 289 289 299 328 350 359 359 358 355 352 346 341 337 332 328 324 321 318 316 314 312 311 310 310 309 309 309 308 308 308 307 307 307 306 306 304 302
329 320 317 315 314 312 313 313 310 307 303 295 287 279 120 97 92 86 256 240 175 96 92 138 245 261 272 265 266 273 290 297 298 295 109 94 339 272 273 293 338 2 338 313 300 296 302 293 284 279 287 319 350 1 2 359 355 349 344 339 334 330 326 322 319 316 314 313 311 310 309 309 308 308 308 308 307 307 307 308 308 308 308 308 307 303
314 304 297 296 297 299 304 308 306 302 298 294 292 293 96 113 132 180 223 205 129 85 69 237 245 251 260 273 284 295 302 285 288 316 61 63 21 285 284 322 352 1 352 325 312 305 308 290 281 283 314 350 358 358 353 352 348 342 336 331 327 323 319 316 313 312 311 310 309 308 307 307 306 306 306 306 307 307 308 309 310 310 310 308 305 300
344 338 327 319 318 319 323 322 314 308 309 312 323 1 83 116 147 175 194 152 116 98 130 261 266 276 299 328 332 325 304 285 288 337 56 47 3 304 308 337 351 358 7 347 331 318 311 297 291 303 346 357 357 352 343 340 336 332 327 324 320 315 311 309 308 307 307 306 306 305 304 304 304 304 305 306 307 308 309 311 311 312 310 306 301 297
8 13 8 357 354 356 1 357 344 338 339 348 1 22 58 103 141 158 155 130 122 126 146 193 242 297 24 18 354 320 292 284 293 337 52 41 357 302 323 342 342 349 26 28 358 327 312 305 305 323 351 355 349 340 330 325 322 318 313 311 308 305 302 302 302 302 302 302 302 301 301 302 303 304 306 307 308 309 309 310 310 309 306 303 300 296
14 19 17 10 8 9 10 7 3 359 357 360 1 4 10 50 114 134 134 130 130 131 137 147 167 187 110 137 203 245 263 276 307 354 42 38 2 311 338 357 346 342 13 59 54 336 310 308 312 324 338 338 332 322 316 313 309 305 301 298 295 294 295 296 297 298 298 298 298 299 300 302 304 305 306 307 306 306 305 305 305 305 302 300 298 296
16 15 10 5 4 3 360 356 354 352 348 346 342 339 343 353 26 86 120 128 130 131 133 136 149 195 201 204 225 240 256 270 318 3 34 41 22 333 343 4 353 342 347 16 54 262 284 298 307 315 319 319 314 310 305 302 298 294 291 288 287 287 289 291 292 294 294 296 298 299 301 303 303 303 303 302 301 300 300 299 299 298 297 296 296 296
17 10 3 359 355 350 344 341 336 331 326 318 315 315 325 340 359 21 67 107 124 135 143 147 156 172 198 245 263 268 271 276 315 357 29 40 30 339 335 347 341 337 339 335 329 316 295 298 304 308 308 307 304 301 297 293 290 286 281 279 279 281 284 287 289 291 293 296 297 299 300 300 299 298 297 296 295 294 293 294 294 293 293 293 294 295
11 2 354 349 341 333 325 321 318 314 310 302 298 299 316 339 355 3 14 52 112 138 149 155 159 164 169 196 251 273 277 279 310 343 16 29 26 344 328 321 324 330 331 324 321 318 306 301 301 301 301 301 300 297 291 285 283 283 281 279 278 280 282 285 289 293 295 295 293 292 291 290 290 290 290 289 289 289 289 290 291 291 291 291 291 291
1 347 334 323 312 305 301 301 305 307 307 299 299 309 334 354 3 359 351 18 76 130 158 164 163 161 162 177 210 248 265 272 294 320 345 11 25 341 311 305 312 320 320 314 310 307 301 298 296 295 295 295 296 296 291 287 288 291 292 288 287 286 284 285 286 288 290 290 288 286 285 284 283 282 282 285 286 287 288 289 289 289 289 288 287 286
341 318 299 288 282 281 282 293 302 306 302 303 313 327 340 348 347 341 336 358 4 354 333 311 286 234 221 219 233 249 262 269 280 291 298 287 278 286 291 295 302 306 304 302 300 298 295 293 292 290 288 287 289 294 297 300 299 296 291 287 285 284 283 281 279 278 280 281 281 282 283 282 282 282 282 284 286 287 288 287 287 286 286 285 284 283
288 275 270 271 276 285 290 300 300 297 294 302 310 319 327 336 340 344 347 348 343 337 329 323 313 301 291 286 280 275 275 277 278 277 272 262 260 268 278 286 290 290 286 285 286 286 285 286 287 288 287 284 285 289 296 300 299 294 289 283 280 277 275 273 271 270 272 276 279 281 282 282 282 282 282 282 283 283 284 282 282 281 282 282 281 280
257 256 261 272 277 274 269 275 272 268 268 283 302 317 333 340 340 336 331 327 324 320 312 301 294 289 286 284 283 282 282 280 277 274 270 262 258 260 269 276 278 277 271 267 266 267 270 274 279 284 289 289 290 291 293 293 292 292 293 292 286 279 272 269 268 268 271 276 279 281 281 280 279 278 277 276 276 276 277 279 279 279 281 282 282 280
252 258 272 279 266 243 230 246 255 264 291 331 343 347 350 348 340 329 316 310 304 297 286 283 282 281 279 277 278 280 283 281 278 276 272 262 254 251 255 260 263 263 261 256 253 254 257 264 270 276 281 286 289 291 292 291 292 295 299 299 297 294 291 288 283 278 274 274 276 278 280 278 276 275 275 275 275 275 276 278 280 281 282 283 284 284
260 283 305 300 284 269 263 284 324 359 11 10 6 359 355 348 338 328 321 315 311 306 307 308 310 308 304 299 294 290 286 282 278 273 266 257 250 245 245 247 249 253 254 253 252 252 253 261 267 273 276 280 284 286 287 288 291 294 297 296 295 295 298 296 291 286 280 276 275 277 281 282 282 281 281 282 280 277 275 277 278 279 279 276 274 275
303 312 314 303 290 290 311 360 12 13 15 12 358 341 326 318 309 305 303 302 301 305 315 321 318 311 304 299 294 287 278 271 266 261 257 250 245 241 240 241 243 246 249 252 254 255 254 259 264 270 273 278 282 285 285 286 287 289 290 291 294 296 296 292 289 286 285 283 282 283 284 285 286 285 284 283 281 278 275 273 273 273 274 271 267 264
318 309 300 292 293 302 330 351 355 351 347 330 306 289 277 272 270 270 270 273 278 282 287 287 286 285 284 280 277 272 266 259 254 251 248 244 240 236 235 236 237 239 240 247 253 256 254 257 260 264 269 273 277 281 285 287 287 287 285 288 293 297 297 294 293 291 289 287 286 284 283 282 282 282 281 279 277 275 274 272 271 270 269 269 266 262
313 307 296 291 295 303 313 308 296 282 273 265 263 260 255 247 250 258 267 268 270 271 272 269 269 270 271 271 271 271 267 263 257 252 247 243 237 231 229 230 232 233 229 235 245 255 262 263 263 265 267 270 272 275 279 283 285 285 285 286 286 285 283 288 293 294 291 287 284 281 277 277 278 279 279 276 275 273 273 271 270 268 267 266 265 263
284 281 276 274 279 286 287 280 270 261 254 254 254 252 249 245 248 252 257 261 261 259 254 254 259 264 265 267 271 273 274 274 273 269 263 255 247 239 229 227 228 230 228 229 234 244 258 267 270 272 272 270 269 271 274 279 282 283 283 283 281 278 275 279 283 285 285 283 281 278 275 275 277 279 278 275 272 270 270 270 271 270 269 266 264 264
245 247 248 249 253 259 265 264 262 258 254 253 249 247 245 241 243 248 253 256 257 256 251 247 251 261 268 274 277 279 279 277 276 276 276 270 261 250 237 229 229 230 230 230 232 236 243 256 265 272 276 274 271 268 269 274 277 280 280 280 280 278 278 277 276 276 276 276 276 275 273 274 276 277 276 274 272 270 269 269 269 270 271 269 267 266
234 238 241 243 245 247 250 250 249 250 254 255 254 253 250 244 247 253 260 258 258 259 259 255 256 262 269 276 280 282 282 284 283 281 279 277 274 270 263 250 242 237 235 236 237 238 240 245 251 258 267 272 272 271 269 270 272 274 276 277 277 277 277 275 273 271 271 271 272 272 273 275 276 275 274 275 276 275 273 270 267 264 265 266 267 268
241 243 246 246 248 249 252 255 260 266 275 279 279 278 273 268 269 271 267 258 256 259 262 261 262 265 268 271 273 277 281 285 287 288 287 284 282 281 280 276 269 261 252 249 247 246 245 242 241 244 250 259 265 269 271 270 269 269 271 272 274 274 273 273 272 271 270 269 269 269 271 273 275 276 278 279 278 278 277 274 269 265 265 267 270 272
261 262 268 272 276 280 285 291 295 295 292 289 285 280 274 269 270 271 266 260 258 260 264 269 272 273 274 274 275 278 281 284 286 288 289 290 291 291 291 289 287 282 276 267 260 255 252 245 239 236 236 243 252 260 265 266 266 266 267 268 269 270 272 273 273 272 272 272 270 268 267 269 271 275 280 282 283 284 285 284 282 280 278 276 275 275
312 303 298 295 294 291 289 288 286 281 277 274 272 271 268 264 262 262 264 269 274 279 282 284 285 284 284 285 285 286 286 286 287 289 290 290 293 295 296 294 293 291 288 281 274 268 264 255 242 233 228 230 236 245 256 260 262 264 265 264 263 265 268 271 272 273 273 274 274 273 271 272 274 278 283 288 290 291 291 290 288 287 285 282 278 276
295 287 284 279 275 271 270 267 266 265 265 267 271 275 279 279 279 278 279 281 283 283 282 281 281 281 281 283 284 284 284 284 285 286 287 287 289 291 290 289 289 289 288 285 282 278 276 275 265 247 231 226 227 231 241 249 255 260 263 262 260 260 262 267 271 273 274 276 278 280 280 282 284 285 287 291 293 293 292 291 290 289 288 287 285 283